Weather History for Destin, FL

Change the Weather History Date:

Thursday, February 14, 2013

  Actual Average Record
Temperature  
Mean Temperature 50 °F -  
Max Temperature 57 °F 61 °F 70 °F (2000)
Min Temperature 44 °F 46 °F 33 °F (2008)
Degree Days  
Heating Degree Days 14    
Moisture  
Dew Point 39 °F    
Average Humidity 72    
Maximum Humidity 82    
Minimum Humidity 53    
Precipitation  
Precipitation 0.00 in - - ()
Sea Level Pressure  
Sea Level Pressure 30.08 in    
Wind  
Wind Speed 8 mph (North)    
Max Wind Speed 14 mph    
Max Gust Speed -    
Visibility 10 miles    
Events      
Averages and records for this station are not official NWS values.
T = Trace of Precipitation, MM = Missing Value Source: NWS Daily Summary

Daily Weather History Graph

Daily Weather History Graph

Search for Another Location

Airport:

Trip Planner

Search our weather history database for the weather conditions in past years. The results will help you decide how hot, cold, wet, or windy it might be!

Date:

Astronomy

Feb. 14, 2013 Rise Set
Actual Time 6:26 AM CST 5:33 PM CST
Civil Twilight 6:02 AM CST 5:58 PM CST
Nautical Twilight 5:34 AM CST 6:26 PM CST
Astronomical Twilight 5:06 AM CST 6:54 PM CST
Moon 8:52 AM CST (2/14) 10:09 PM CST (2/14)
Length of Visible Light 11h 55m
Length of Day
11h 06m
Waxing Crescent, 22% of the Moon is Illuminated
Feb 14
Waxing Crescent
Feb 17
First Quarter
Feb 25
Full
Mar 4
Last Quarter
Mar 11
New

Hourly Weather History & Observations

Time (CST) Temp. Windchill Dew Point Humidity Pressure Visibility Wind Dir Wind Speed Gust Speed Precip Events Conditions
12:53 AM 48.9 °F - 43.0 °F 80% 30.03 in 10.0 mi North 10.4 mph - N/A   Scattered Clouds
1:53 AM 48.0 °F - 41.0 °F 77% 30.03 in 10.0 mi North 8.1 mph - N/A   Partly Cloudy
2:53 AM 48.0 °F - 39.0 °F 71% 30.04 in 10.0 mi North 10.4 mph - N/A   Partly Cloudy
3:53 AM 46.9 °F - 39.0 °F 74% 30.02 in 10.0 mi North 13.8 mph - N/A   Clear
4:53 AM 46.0 °F 40.6 °F 37.9 °F 73% 30.04 in 10.0 mi North 11.5 mph - N/A   Partly Cloudy
5:53 AM 46.0 °F 41.4 °F 37.9 °F 73% 30.07 in 10.0 mi North 9.2 mph - N/A   Clear
6:53 AM 46.0 °F 41.0 °F 39.0 °F 76% 30.08 in 10.0 mi North 10.4 mph - N/A   Clear
7:53 AM 46.0 °F 41.4 °F 37.9 °F 73% 30.12 in 10.0 mi North 9.2 mph - N/A   Clear
8:53 AM 46.0 °F 43.9 °F 39.0 °F 76% 30.15 in 10.0 mi NNE 4.6 mph - N/A   Clear
9:53 AM 46.9 °F - 39.0 °F 74% 30.14 in 10.0 mi NNE 6.9 mph - N/A   Clear
10:53 AM 48.0 °F - 39.0 °F 71% 30.11 in 10.0 mi NNE 6.9 mph - N/A   Clear
11:53 AM 50.0 °F - 37.9 °F 63% 30.13 in 10.0 mi North 8.1 mph - N/A   Clear
12:53 PM 50.0 °F - 39.0 °F 66% 30.08 in 10.0 mi North 8.1 mph - N/A   Clear
1:53 PM 52.0 °F - 39.9 °F 63% 30.06 in 10.0 mi North 10.4 mph - N/A   Clear
2:53 PM 54.0 °F - 39.9 °F 59% 30.05 in 10.0 mi NNW 10.4 mph - N/A   Clear
3:53 PM 57.0 °F - 39.9 °F 53% 30.03 in 10.0 mi North 6.9 mph - N/A   Clear
4:53 PM 55.0 °F - 39.0 °F 55% 30.05 in 10.0 mi NNE 3.5 mph - N/A   Clear
5:53 PM 50.0 °F - 39.0 °F 66% 30.07 in 10.0 mi Calm Calm - N/A   Clear
6:53 PM 46.9 °F - 39.9 °F 77% 30.09 in 10.0 mi Calm Calm - N/A   Clear
7:53 PM 48.0 °F - 39.9 °F 74% 30.09 in 10.0 mi Calm Calm - N/A   Clear
8:53 PM 45.0 °F - 39.9 °F 82% 30.10 in 10.0 mi Calm Calm - N/A   Clear
9:53 PM 46.0 °F - 39.9 °F 79% 30.11 in 10.0 mi Calm Calm - N/A   Clear
10:53 PM 44.1 °F - 39.0 °F 82% 30.10 in 10.0 mi Calm Calm - N/A   Clear
11:53 PM 44.1 °F - 39.0 °F 82% 30.09 in 10.0 mi Calm Calm - N/A   Clear